Regional Weather Roundup
Issued by NWS

Home | Current Version | Previous Version | Graphics & Text | Print | Product List | Glossary On
Versions: 1 2 3 4 5 6 7 8 9 10 11 12 13 14 15 16 17 18 19 20 21 22 23 24 25 26 27 28 29 30 31 32 33 34 35 36 37 38 39 40 41 42 43 44 45 46 47 48 49 50
845
ASUS45 KSLC 241210
RWRUT

UTAH REGIONAL WEATHER ROUNDUP
NATIONAL WEATHER SERVICE SALT LAKE CITY UT
600 AM MDT MON APR 24 2017

UTZ001>011-023>025-241300-

NORTHERN UTAH

CITY           SKY/WX    TMP DP  RH WIND       PRES   REMARKS
BRIGHAM CITY   CLOUDY    49  37  63 N3        29.71F
HILL AFB       CLOUDY    45  32  61 E13       29.72F
LOGAN          MOCLDY    40  36  86 NE5       29.72F
OGDEN          CLOUDY    44  34  67 S9        29.71F
SALT LAKE CITY MOCLDY    51  39  63 SE10      29.71F
TOOELE VALLEY  MOCLDY    46  36  66 S16       29.70F
WENDOVER       CLOUDY    51  31  46 W5        29.71F
HEBER CITY     MOCLDY    32  30  93 CALM      29.78F
WEST JORDAN    CLOUDY    52  45  77 S12       29.73F

$$

UTZ011>015-024>027-241300-

CENTRAL/NORTHEAST UTAH

CITY           SKY/WX    TMP DP  RH WIND       PRES   REMARKS
PROVO AIRPORT  CLOUDY    40  38  93 E3        29.76F
MOAB/CANYONLAN MOCLDY    47  32  56 CALM      29.75F
DELTA          MOCLDY    43  37  81 NE5       29.75F
PRICE          PTCLDY    39  31  72 N10       29.80F WCI  32
ROOSEVELT      PTCLDY    43  30  61 CALM      29.81S
VERNAL         CLOUDY    42  34  73 CALM      29.79S

$$

UTZ013>016-019>022-027-241300-

SOUTHERN UTAH

CITY           SKY/WX    TMP DP  RH WIND       PRES   REMARKS
BRYCE CANYON   PTCLDY    30  23  75 W3        29.89S
CEDAR CITY     MOCLDY    36  30  79 CALM      29.77F
MILFORD        CLOUDY    40  35  83 S12       29.75F WCI  33
ST GEORGE      PTSUNNY   56  25  30 S5        29.70R
HANKSVILLE     PTCLDY    43  30  61 CALM      29.79S
BLANDING       MOCLDY    44  25  46 N3        29.89F

$$

REGIONAL REPORTS     COLORADO/ARIZONA

CITY           SKY/WX    TMP DP  RH WIND       PRES   REMARKS
CRAIG, CO      MOCLDY    38  35  89 CALM      29.83F
GRAND JUNCTION CLEAR     46  32  58 NE5       29.77S
RIFLE, CO      CLOUDY    48  35  60 CALM      29.80F
MONTROSE, CO   PTCLDY    48  28  46 E5        29.83S
CORTEZ, CO     CLOUDY    37  25  61 E6        29.85S WCI  32
COLORADO CITY    N/A     39  28  65 SE6       29.81S WCI  35
PAGE, AZ       PTCLDY    56  29  35 CALM      29.75R
GRAND CANYON   PTCLDY    43  25  49 SW8       29.88F
KINGMAN, AZ    CLEAR     55  21  26 SE8       29.74F
FLAGSTAFF, AZ  PTCLDY    38  22  52 CALM      29.93F

$$

REGIONAL REPORTS    NEVADA/IDAHO/WYOMING

CITY           SKY/WX    TMP DP  RH WIND       PRES   REMARKS
LAS VEGAS, NV  MOCLDY    64  23  21 S6        29.65F
ELY, NY        CLOUDY    35  29  78 S10       29.81F WCI  27
ELKO, NV       CLOUDY    42  32  67 SW5       29.77F
POCATELLO, ID  CLOUDY    45  37  73 SW8       29.73F
BURLEY, ID     CLOUDY    42  37  82 CALM      29.71F
EVANSTON, WY   CLOUDY    35  31  85 SW8       29.79F WCI  29
ROCK SPRINGS,  CLOUDY    36  31  82 S7        29.79F WCI  30
KEMMERER, WY     N/A     32  28  86 N5        29.79F WCI  27

$$




USA.gov is the U.S. government's official web portal to all federal, state and local government web resources and services.